Overview Statistics Trail Chart Weather Telemetry Raw packets
 

This is the latest recevied weather packets stored in our database for station/object SV9TNF-55. If no packets are shown the sender has not sent any weather packets the latest 10 day(s).

<< 1 2 3 4 5 >>
Time Temp. Humidity Pressure Rain* Wind** Luminosity Snow
1788652066 18.89° C 40% 1018.8 hPa 0 mm 0.89 m/s, 270° - -
1788651466 18.33° C 42% 1018.8 hPa 0 mm 0.89 m/s, 292° - -
1788650866 18.89° C 43% 1018.9 hPa 0 mm 0.89 m/s, 315° - -
1788650267 19.44° C 41% 1018.8 hPa 0 mm 0.89 m/s, 315° - -
1788649666 19.44° C 42% 1018.9 hPa 0 mm 0.45 m/s, 270° - -
1788649077 19.44° C 42% 1019.1 hPa 0 mm 1.34 m/s, 270° - -
1788648466 19.44° C 44% 1019.1 hPa 0 mm 1.34 m/s, 270° - -
1788647866 18.33° C 49% 1019.1 hPa 0 mm 0.45 m/s, 270° - -
1788647265 18.89° C 47% 1019.3 hPa 0 mm 0.45 m/s, 292° - -
1788646666 19.44° C 47% 1019.2 hPa 0 mm 0.89 m/s, 292° - -
1788646066 19.44° C 47% 1019.3 hPa 0 mm 1.34 m/s, 292° - -
1788645465 19.44° C 48% 1019.3 hPa 0 mm 0.45 m/s, 292° - -
1788644865 19.44° C 48% 1019.4 hPa 0 mm 0.89 m/s, 270° - -
1788644265 19.44° C 47% 1019.5 hPa 0 mm 0.89 m/s, 270° - -
1788643666 19.44° C 47% 1019.5 hPa 0 mm 1.34 m/s, 292° - -
1788643065 19.44° C 47% 1019.4 hPa 0 mm 1.34 m/s, 292° - -
1788642465 19.44° C 46% 1019.5 hPa 0 mm 1.34 m/s, 292° - -
1788641865 19.44° C 47% 1019.8 hPa 0 mm 0.89 m/s, 337° - -
1788641265 19.44° C 47% 1019.8 hPa 0 mm 0.89 m/s, 337° - -
1788640664 19.44° C 47% 1019.7 hPa 0 mm 1.34 m/s, 270° - -
1788640064 19.44° C 46% 1019.8 hPa 0 mm 1.34 m/s, 292° - -
1788639465 19.44° C 45% 1019.7 hPa 0 mm 1.34 m/s, 292° - -
1788638864 19.44° C 46% 1019.8 hPa 0 mm 1.79 m/s, 270° - -
1788638264 19.44° C 47% 1019.8 hPa 0 mm 2.24 m/s, 292° - -
1788637664 19.44° C 46% 1019.9 hPa 0 mm 1.34 m/s, 315° - -

* Rain latest hour (hover to see other rain measurements)
** Current wind speed in m/s (hover to see current wind gust speed)